User: anonymous   Login
Location: Unspecified
(0.0000°N, 0.0000°E)
Time: 08:41:41
(UTC+00:00)
Language:

UCLSAT - Orbit

View from above orbital plane
View from above orbital plane
View from above satellite
View from above satellite

Ground track
Ground track

The orbit data is extracted from the following two-line orbital elements,

1 42765U 17036A   19345.10513733 +.00000982 +00000-0 +44544-4 0  9990
2 42765 097.3294 039.1734 0010678 341.0236 019.0602 15.23095117137753
Epoch (UTC): 11 December 2019 02:31:23
Eccentricity: 0.0010678
inclination: 97.3294°
perigee height: 489 km
apogee height: 504 km
right ascension of ascending node: 39.1734°
argument of perigee: 341.0236°
revolutions per day: 15.23095117
mean anomaly at epoch: 19.0602°
orbit number at epoch: 13775

The dashed part of the orbit path shows where the satellite is in the earth's shadow,  

DLR